CZ-6A DEB, 54902

Orbit data source: Space-Track

CZ-6A DEB, 54902 is space debris in SSO originally from a launch on Fri, 11 Nov 2022 UTC launched from the Taiyaun Space Center, China (TSC). Debris objects in space refer to the collection of defunct objects orbiting the Earth. Examples of debris include non-operational satellites, rocket bodies, and fragments generated from explosions, collisions, or faulty payload assembly.

Loading next visibility...
Identifier
54902, 2022-151QP
Orbit
SSO
Country
Flag of CNCN / PRC
Related business
Manufacturer
SAST
Mission
Spacecraft
Bus & Motor
Unknown
Mass
Unknown
Launch date (UTC)
2022-11-11 (3 years ago)
Launch vehicle
Unknown
Launch site
Taiyaun Space Center, China (TSC)
Object type
Payload
Rocket body
Debris
Shape & HBR
Unknown shape, 0.1 m
Radar Cross Section
Small (<0.1 m²)

Expand to show TLE details & history
Last TLE update: 18 hours ago

TLE from 18 hours ago
0 CZ-6A DEB
1 54902U 22151QP  25350.13108233  .00022812  00000-0  27394-2 0  9999
2 54902  98.6188  46.3346 0049852 107.4755 253.1914 14.83100052163509
Epoch: 2025-12-16T03:08Z
TLE epoch observation values (Epoch: 2025-12-16T03:08:45.513Z)
Latitude
-0.00002°
Longitude
-85.87474°
Altitude
632.808 km
Speed
7.536 km/s
True Right ascension
03h 05m 20s
True Declination
0° 00' 00"
Sunlit
Object was in full shadow at epoch
Visualization orbit readout
Latitude
Unknown
Longitude
Unknown
Altitude
Unknown
Speed
Unknown
Apparent Right ascension
Unknown
Apparent Declination
Unknown
Sunlit
N/A
Visualization observer readout
Local Sidereal Time
19:42:28
Azimuth
Unknown
Elevation
Unknown
Doppler factor
Unknown
Orbital elements
Apogee altitude
651.496 km
Perigee altitude
581.756 km
Semi-major axis
6,994.763 km
Eccentricity
0.00499
Inclination
98.6188°
RAAN
46.3346°
Arg. of periapsis
107.4755°
True anomaly
252.64554°
Mean anomaly
253.1914°
Eccentric anomaly
252.91837°
Mean motion
3.71008 °/min
Orbital period
97.03 mins
BSTAR
0.0027394
Loading maneuver chart data...
Computing Atmospheric mass density...
Loading historical data...
Loading historical data...
Loading historical data...
Loading historical data...
Loading historical data...
Loading historical data...
Loading historical data...

Documentation

Showing up to 5 results
|